{"data":{"norad_id":64136,"intl_designator":"2025-111P","name":"STARLINK-34254","alt_names":[],"object_type":"PAYLOAD","status":"ACTIVE","operator":null,"country":"US","launch_date":"2025-05-24","launch_site_code":"AFETR","launch_vehicle":null,"mission":null,"orbit_class":"UNKNOWN","rcs_meters":null,"size_class":null,"mass_kg":null,"dimensions":null,"purposes":["comms"],"wikipedia_slug":null,"has_3d_model":false,"image_url":null,"decayed_at":null,"tle_current":{"epoch":"2026-05-24T23:22:09.827040Z","epoch_age_seconds":80392,"freshness":"FRESH","line1":"1 64136U 25111P   26144.97372485  .00014904  00000+0  54982-3 0  9990","line2":"2 64136  43.0013   6.7515 0000907 278.6425  81.4324 15.27592595 57135","mean_motion":15.27592595,"eccentricity":9.07e-5,"inclination_deg":43.0013,"raan_deg":6.7515,"arg_perigee_deg":278.6425,"mean_anomaly_deg":81.4324,"bstar":0.00054982,"rev_number":5713,"period_min":94.265971484367,"perigee_km":482.38907617947,"apogee_km":483.63368849603,"semimajor_km":6861.1483823378,"source":"CELESTRAK","updated_at":"2026-05-25T13:38:20.274175Z"}}}